QPF
0.11 0.12 0.11 0.09 0.09 0.10 0.09 0.09 0.10 0.09 0.08 0.08 0.08 0.08 0.07 0.08 0.08 0.09 0.10 0.11 0.11 0.11 0.13 0.15 0.17 0.17 0.17 0.17 0.16 0.14 0.13 0.11 0.10 0.05 0.02 0.02 0.03 0.04 0.04 0.04 0.04 0.03 0.03
0.12 0.12 0.11 0.09 0.08 0.08 0.08 0.08 0.08 0.08 0.09 0.10 0.10 0.10 0.10 0.09 0.09 0.09 0.10 0.11 0.12 0.12 0.11 0.12 0.13 0.15 0.18 0.19 0.20 0.19 0.17 0.15 0.13 0.10 0.06 0.05 0.05 0.05 0.05 0.06 0.05 0.05 0.04
0.08 0.08 0.08 0.08 0.07 0.07 0.06 0.06 0.05 0.06 0.06 0.07 0.09 0.10 0.11 0.13 0.13 0.12 0.11 0.10 0.10 0.11 0.11 0.13 0.12 0.13 0.14 0.16 0.18 0.20 0.19 0.18 0.17 0.14 0.10 0.07 0.06 0.06 0.08 0.09 0.08 0.08 0.06
0.06 0.05 0.05 0.04 0.05 0.06 0.06 0.05 0.05 0.06 0.06 0.07 0.08 0.10 0.11 0.14 0.17 0.18 0.16 0.14 0.13 0.12 0.12 0.13 0.13 0.14 0.14 0.15 0.16 0.17 0.19 0.20 0.20 0.19 0.16 0.12 0.10 0.09 0.10 0.12 0.11 0.10 0.09
0.04 0.04 0.04 0.04 0.05 0.06 0.07 0.07 0.07 0.07 0.08 0.09 0.09 0.11 0.13 0.14 0.16 0.17 0.19 0.18 0.17 0.15 0.15 0.15 0.14 0.14 0.14 0.14 0.15 0.15 0.17 0.19 0.19 0.19 0.17 0.15 0.13 0.11 0.11 0.10 0.10 0.10 0.10
0.04 0.04 0.03 0.04 0.05 0.05 0.05 0.06 0.06 0.06 0.07 0.07 0.07 0.08 0.09 0.10 0.11 0.11 0.12 0.14 0.16 0.16 0.16 0.15 0.14 0.15 0.15 0.15 0.14 0.14 0.15 0.17 0.18 0.17 0.15 0.13 0.10 0.08 0.08 0.10 0.11 0.12 0.11
0.04 0.03 0.02 0.02 0.02 0.02 0.02 0.02 0.02 0.03 0.03 0.04 0.04 0.05 0.06 0.06 0.07 0.07 0.08 0.10 0.12 0.14 0.16 0.18 0.18 0.17 0.17 0.17 0.17 0.17 0.16 0.16 0.16 0.15 0.15 0.13 0.10 0.09 0.11 0.13 0.12 0.11 0.08
0.03 0.02 0.01 0.01 0.01 0.01 0.01 0.01 0.01 0.02 0.02 0.02 0.02 0.03 0.04 0.04 0.04 0.04 0.05 0.06 0.08 0.10 0.12 0.14 0.16 0.17 0.18 0.18 0.17 0.18 0.16 0.15 0.14 0.12 0.11 0.10 0.10 0.11 0.12 0.13 0.13 0.14 0.13
0.02 0.02 0.02 0.01 0.01 0.01 0.01 0.01 0.02 0.02 0.02 0.01 0.01 0.02 0.02 0.03 0.04 0.04 0.04 0.04 0.05 0.06 0.08 0.10 0.12 0.12 0.16 0.19 0.18 0.17 0.16 0.15 0.16 0.16 0.15 0.14 0.14 0.16 0.16 0.16 0.17 0.18 0.15
0.00 0.01 0.01 0.01 0.01 0.01 0.01 0.01 0.01 0.02 0.02 0.02 0.02 0.02 0.02 0.03 0.04 0.05 0.04 0.04 0.04 0.05 0.05 0.06 0.09 0.10 0.13 0.15 0.15 0.16 0.15 0.13 0.13 0.15 0.16 0.15 0.13 0.13 0.15 0.13 0.13 0.13 0.12
0.00 0.00 0.00 0.01 0.01 0.01 0.01 0.01 0.01 0.02 0.02 0.02 0.02 0.02 0.03 0.03 0.04 0.05 0.06 0.06 0.06 0.06 0.06 0.06 0.07 0.09 0.10 0.12 0.13 0.13 0.13 0.14 0.15 0.15 0.16 0.16 0.15 0.14 0.12 0.11 0.11 0.12 0.11
0.00 0.00 0.00 0.00 0.00 0.00 0.00 0.01 0.01 0.01 0.01 0.02 0.02 0.02 0.03 0.03 0.04 0.05 0.06 0.07 0.08 0.08 0.08 0.08 0.08 0.09 0.09 0.10 0.11 0.12 0.14 0.16 0.16 0.18 0.18 0.17 0.16 0.14 0.11 0.11 0.11 0.11 0.10
0.00 0.00 0.00 0.00 0.00 0.00 0.00 0.00 0.00 0.00 0.01 0.01 0.01 0.02 0.02 0.02 0.03 0.04 0.04 0.05 0.06 0.07 0.07 0.08 0.08 0.10 0.10 0.10 0.10 0.11 0.12 0.12 0.14 0.16 0.16 0.15 0.14 0.14 0.15 0.14 0.15 0.14 0.13
0.00 0.00 0.00 0.00 0.00 0.00 0.00 0.00 0.00 0.00 0.00 0.00 0.01 0.01 0.01 0.02 0.02 0.03 0.03 0.04 0.05 0.06 0.07 0.07 0.08 0.09 0.09 0.10 0.11 0.10 0.10 0.10 0.11 0.12 0.12 0.13 0.15 0.18 0.19 0.18 0.17 0.15 0.14
0.00 0.00 0.00 0.00 0.00 0.00 0.00 0.00 0.00 0.00 0.00 0.01 0.01 0.01 0.02 0.02 0.02 0.03 0.03 0.03 0.04 0.05 0.06 0.08 0.08 0.09 0.09 0.09 0.09 0.09 0.10 0.11 0.13 0.12 0.12 0.13 0.15 0.17 0.17 0.16 0.16 0.15 0.13
0.00 0.00 0.00 0.00 0.00 0.00 0.00 0.00 0.00 0.00 0.00 0.00 0.01 0.01 0.01 0.02 0.02 0.02 0.03 0.03 0.04 0.05 0.06 0.06 0.07 0.07 0.07 0.07 0.08 0.08 0.08 0.10 0.11 0.12 0.13 0.14 0.14 0.16 0.16 0.16 0.15 0.14 0.13
0.00 0.00 0.00 0.00 0.00 0.00 0.00 0.00 0.00 0.00 0.00 0.00 0.00 0.00 0.01 0.01 0.01 0.01 0.02 0.03 0.03 0.04 0.04 0.05 0.05 0.06 0.06 0.06 0.06 0.07 0.07 0.08 0.10 0.11 0.12 0.14 0.14 0.15 0.16 0.16 0.15 0.14 0.12
0.00 0.00 0.00 0.00 0.00 0.00 0.00 0.00 0.00 0.00 0.00 0.00 0.00 0.00 0.00 0.01 0.01 0.01 0.02 0.02 0.02 0.03 0.03 0.04 0.05 0.06 0.07 0.07 0.07 0.07 0.08 0.09 0.10 0.11 0.12 0.13 0.15 0.15 0.15 0.15 0.14 0.12 0.11
0.00 0.00 0.00 0.00 0.00 0.00 0.00 0.00 0.00 0.00 0.00 0.00 0.00 0.00 0.00 0.00 0.01 0.01 0.01 0.02 0.02 0.03 0.03 0.04 0.05 0.06 0.06 0.07 0.07 0.07 0.08 0.09 0.10 0.11 0.12 0.12 0.13 0.14 0.15 0.15 0.14 0.13 0.11
0.00 0.00 0.00 0.00 0.00 0.00 0.00 0.00 0.00 0.00 0.00 0.00 0.00 0.00 0.01 0.01 0.01 0.01 0.01 0.02 0.03 0.03 0.03 0.04 0.05 0.05 0.06 0.07 0.08 0.08 0.08 0.08 0.09 0.10 0.12 0.12 0.12 0.12 0.13 0.13 0.14 0.13 0.11
0.00 0.00 0.00 0.00 0.00 0.00 0.00 0.01 0.01 0.01 0.01 0.01 0.01 0.01 0.02 0.03 0.02 0.01 0.02 0.02 0.03 0.03 0.03 0.04 0.04 0.05 0.06 0.07 0.08 0.08 0.08 0.08 0.09 0.09 0.10 0.10 0.11 0.11 0.11 0.12 0.12 0.12 0.11
0.00 0.00 0.00 0.00 0.00 0.00 0.01 0.01 0.01 0.01 0.01 0.01 0.01 0.01 0.01 0.01 0.02 0.02 0.02 0.03 0.03 0.03 0.03 0.04 0.05 0.05 0.05 0.07 0.08 0.08 0.08 0.08 0.08 0.09 0.09 0.09 0.10 0.10 0.11 0.11 0.12 0.12 0.11
0.00 0.00 0.00 0.00 0.00 0.00 0.00 0.00 0.01 0.01 0.01 0.01 0.01 0.01 0.01 0.01 0.02 0.02 0.02 0.03 0.03 0.04 0.04 0.04 0.05 0.05 0.05 0.06 0.07 0.07 0.08 0.08 0.08 0.08 0.08 0.09 0.09 0.09 0.10 0.10 0.10 0.10 0.09
0.00 0.00 0.00 0.00 0.00 0.00 0.00 0.00 0.01 0.01 0.01 0.01 0.01 0.01 0.01 0.02 0.02 0.02 0.03 0.04 0.04 0.04 0.04 0.05 0.05 0.06 0.06 0.06 0.06 0.06 0.06 0.08 0.08 0.08 0.08 0.10 0.09 0.09 0.09 0.10 0.09 0.09 0.09
0.00 0.00 0.00 0.00 0.00 0.00 0.00 0.00 0.01 0.01 0.01 0.01 0.01 0.01 0.01 0.02 0.02 0.03 0.03 0.04 0.04 0.05 0.05 0.06 0.06 0.06 0.06 0.06 0.06 0.06 0.06 0.08 0.08 0.08 0.08 0.10 0.10 0.09 0.09 0.09 0.09 0.09 0.09
0.00 0.00 0.00 0.00 0.00 0.00 0.01 0.01 0.01 0.01 0.01 0.01 0.01 0.02 0.02 0.02 0.02 0.03 0.03 0.03 0.04 0.04 0.05 0.05 0.06 0.06 0.06 0.06 0.05 0.06 0.07 0.07 0.08 0.08 0.08 0.08 0.08 0.08 0.09 0.09 0.09 0.09 0.08
MSLP
1018.31 1018.08 1017.88 1017.65 1017.37 1017.03 1016.60 1016.10 1015.54 1014.94 1014.31 1013.68 1013.06 1012.45 1011.84 1011.25 1010.67 1010.11 1009.57 1009.08 1008.63 1008.24 1007.90 1007.61 1007.36 1007.14 1006.93 1006.73 1006.55 1006.41 1006.33 1006.34 1006.46 1006.71 1007.09 1007.58 1008.16 1008.76 1009.35 1009.89 1010.36 1010.74 1011.05
1018.80 1018.59 1018.39 1018.15 1017.86 1017.50 1017.06 1016.56 1016.01 1015.44 1014.85 1014.27 1013.69 1013.12 1012.54 1011.96 1011.37 1010.78 1010.20 1009.64 1009.11 1008.62 1008.18 1007.78 1007.43 1007.09 1006.78 1006.49 1006.22 1005.99 1005.82 1005.74 1005.78 1005.94 1006.25 1006.67 1007.19 1007.76 1008.34 1008.89 1009.39 1009.83 1010.22
1019.05 1018.85 1018.65 1018.40 1018.09 1017.71 1017.27 1016.78 1016.27 1015.74 1015.22 1014.70 1014.20 1013.69 1013.17 1012.63 1012.07 1011.48 1010.88 1010.29 1009.71 1009.16 1008.64 1008.17 1007.73 1007.31 1006.91 1006.52 1006.15 1005.81 1005.53 1005.33 1005.25 1005.30 1005.49 1005.82 1006.25 1006.75 1007.30 1007.84 1008.37 1008.87 1009.34
1019.16 1018.97 1018.75 1018.47 1018.13 1017.74 1017.30 1016.83 1016.35 1015.88 1015.42 1014.98 1014.55 1014.12 1013.67 1013.18 1012.66 1012.10 1011.51 1010.91 1010.32 1009.75 1009.20 1008.69 1008.19 1007.71 1007.24 1006.77 1006.30 1005.85 1005.45 1005.12 1004.89 1004.80 1004.84 1005.04 1005.35 1005.77 1006.26 1006.79 1007.33 1007.88 1008.42
1019.26 1019.06 1018.80 1018.49 1018.12 1017.70 1017.25 1016.79 1016.34 1015.91 1015.51 1015.13 1014.77 1014.40 1014.00 1013.57 1013.08 1012.56 1012.00 1011.42 1010.85 1010.29 1009.75 1009.23 1008.72 1008.22 1007.70 1007.16 1006.61 1006.05 1005.52 1005.05 1004.67 1004.41 1004.29 1004.34 1004.52 1004.84 1005.26 1005.75 1006.30 1006.88 1007.48
1019.42 1019.19 1018.90 1018.54 1018.13 1017.68 1017.20 1016.74 1016.30 1015.89 1015.53 1015.19 1014.87 1014.53 1014.17 1013.77 1013.32 1012.83 1012.30 1011.76 1011.22 1010.70 1010.19 1009.70 1009.21 1008.71 1008.17 1007.60 1006.97 1006.33 1005.68 1005.07 1004.53 1004.11 1003.83 1003.71 1003.76 1003.96 1004.30 1004.75 1005.29 1005.89 1006.54
1019.67 1019.41 1019.07 1018.66 1018.20 1017.71 1017.21 1016.73 1016.29 1015.89 1015.53 1015.20 1014.89 1014.57 1014.22 1013.83 1013.39 1012.92 1012.42 1011.91 1011.41 1010.94 1010.48 1010.04 1009.59 1009.11 1008.57 1007.97 1007.30 1006.58 1005.83 1005.09 1004.42 1003.84 1003.40 1003.14 1003.06 1003.15 1003.41 1003.81 1004.32 1004.94 1005.62
1019.97 1019.67 1019.29 1018.84 1018.33 1017.80 1017.28 1016.78 1016.32 1015.91 1015.54 1015.21 1014.88 1014.54 1014.17 1013.77 1013.32 1012.85 1012.37 1011.89 1011.43 1011.00 1010.59 1010.20 1009.79 1009.34 1008.82 1008.21 1007.51 1006.74 1005.91 1005.07 1004.27 1003.57 1003.00 1002.61 1002.41 1002.40 1002.59 1002.94 1003.43 1004.04 1004.74
1020.25 1019.92 1019.50 1019.01 1018.47 1017.92 1017.37 1016.86 1016.39 1015.96 1015.58 1015.22 1014.86 1014.49 1014.09 1013.66 1013.19 1012.70 1012.22 1011.75 1011.31 1010.91 1010.54 1010.18 1009.81 1009.38 1008.88 1008.27 1007.56 1006.74 1005.86 1004.95 1004.07 1003.27 1002.61 1002.12 1001.83 1001.74 1001.86 1002.16 1002.62 1003.22 1003.93
1020.43 1020.07 1019.62 1019.11 1018.56 1018.00 1017.45 1016.93 1016.46 1016.02 1015.62 1015.24 1014.85 1014.45 1014.01 1013.54 1013.04 1012.52 1012.02 1011.54 1011.11 1010.72 1010.36 1010.02 1009.66 1009.26 1008.76 1008.16 1007.43 1006.60 1005.69 1004.74 1003.81 1002.95 1002.23 1001.67 1001.32 1001.18 1001.25 1001.51 1001.94 1002.52 1003.21
1020.46 1020.08 1019.62 1019.11 1018.57 1018.01 1017.48 1016.97 1016.50 1016.07 1015.66 1015.26 1014.85 1014.41 1013.93 1013.42 1012.89 1012.34 1011.81 1011.31 1010.86 1010.46 1010.10 1009.76 1009.40 1008.99 1008.50 1007.89 1007.16 1006.33 1005.41 1004.45 1003.51 1002.63 1001.88 1001.30 1000.91 1000.74 1000.77 1001.00 1001.40 1001.95 1002.62
1020.34 1019.96 1019.51 1019.01 1018.48 1017.95 1017.44 1016.96 1016.50 1016.08 1015.67 1015.26 1014.82 1014.36 1013.85 1013.31 1012.75 1012.17 1011.61 1011.08 1010.61 1010.18 1009.80 1009.43 1009.05 1008.63 1008.12 1007.51 1006.79 1005.96 1005.06 1004.12 1003.19 1002.32 1001.58 1001.00 1000.61 1000.43 1000.45 1000.65 1001.03 1001.54 1002.17
1020.12 1019.74 1019.31 1018.83 1018.33 1017.83 1017.35 1016.89 1016.45 1016.04 1015.62 1015.20 1014.76 1014.27 1013.74 1013.18 1012.59 1011.99 1011.40 1010.85 1010.34 1009.88 1009.46 1009.07 1008.66 1008.21 1007.70 1007.08 1006.37 1005.56 1004.68 1003.77 1002.88 1002.06 1001.35 1000.79 1000.42 1000.25 1000.26 1000.46 1000.81 1001.29 1001.88
1019.86 1019.49 1019.08 1018.63 1018.16 1017.69 1017.23 1016.78 1016.35 1015.93 1015.51 1015.07 1014.61 1014.10 1013.56 1012.98 1012.37 1011.75 1011.15 1010.58 1010.05 1009.56 1009.11 1008.68 1008.25 1007.78 1007.25 1006.64 1005.94 1005.16 1004.32 1003.46 1002.61 1001.84 1001.18 1000.66 1000.32 1000.16 1000.18 1000.37 1000.71 1001.16 1001.72
1019.62 1019.28 1018.89 1018.46 1018.02 1017.56 1017.10 1016.65 1016.21 1015.77 1015.32 1014.85 1014.36 1013.83 1013.27 1012.68 1012.06 1011.44 1010.83 1010.25 1009.71 1009.21 1008.75 1008.30 1007.85 1007.37 1006.83 1006.22 1005.54 1004.79 1003.99 1003.18 1002.39 1001.66 1001.05 1000.58 1000.27 1000.13 1000.16 1000.35 1000.68 1001.12 1001.65
1019.45 1019.13 1018.76 1018.35 1017.92 1017.46 1016.99 1016.51 1016.03 1015.54 1015.05 1014.54 1014.01 1013.45 1012.87 1012.27 1011.65 1011.04 1010.44 1009.87 1009.34 1008.84 1008.38 1007.93 1007.47 1006.99 1006.46 1005.87 1005.21 1004.49 1003.73 1002.95 1002.21 1001.53 1000.95 1000.51 1000.22 1000.10 1000.14 1000.34 1000.66 1001.10 1001.62
1019.33 1019.03 1018.68 1018.29 1017.85 1017.37 1016.87 1016.35 1015.81 1015.27 1014.71 1014.15 1013.57 1012.98 1012.38 1011.77 1011.17 1010.58 1010.00 1009.46 1008.95 1008.48 1008.03 1007.59 1007.15 1006.68 1006.16 1005.58 1004.95 1004.25 1003.52 1002.78 1002.06 1001.40 1000.85 1000.42 1000.15 1000.03 1000.08 1000.28 1000.61 1001.05 1001.58
1019.23 1018.95 1018.62 1018.23 1017.78 1017.28 1016.74 1016.16 1015.56 1014.96 1014.34 1013.72 1013.09 1012.48 1011.86 1011.26 1010.67 1010.10 1009.56 1009.05 1008.58 1008.14 1007.72 1007.31 1006.88 1006.43 1005.93 1005.38 1004.76 1004.08 1003.37 1002.65 1001.94 1001.29 1000.74 1000.31 1000.02 999.90 999.95 1000.15 1000.48 1000.94 1001.49
1019.09 1018.84 1018.52 1018.13 1017.67 1017.14 1016.57 1015.95 1015.30 1014.63 1013.96 1013.29 1012.64 1012.00 1011.38 1010.79 1010.22 1009.68 1009.18 1008.71 1008.28 1007.87 1007.48 1007.09 1006.69 1006.25 1005.77 1005.23 1004.63 1003.97 1003.27 1002.55 1001.84 1001.18 1000.61 1000.17 999.87 999.73 999.76 999.95 1000.29 1000.76 1001.34
1018.88 1018.64 1018.34 1017.95 1017.49 1016.95 1016.36 1015.71 1015.03 1014.33 1013.63 1012.94 1012.27 1011.62 1011.01 1010.43 1009.88 1009.38 1008.90 1008.46 1008.05 1007.67 1007.29 1006.92 1006.53 1006.11 1005.64 1005.10 1004.51 1003.86 1003.16 1002.45 1001.74 1001.07 1000.49 1000.02 999.69 999.53 999.54 999.72 1000.07 1000.55 1001.16
1018.58 1018.36 1018.07 1017.69 1017.24 1016.71 1016.12 1015.47 1014.78 1014.08 1013.38 1012.69 1012.02 1011.39 1010.79 1010.22 1009.70 1009.20 1008.74 1008.31 1007.90 1007.52 1007.14 1006.75 1006.36 1005.93 1005.45 1004.93 1004.34 1003.70 1003.02 1002.31 1001.61 1000.94 1000.35 999.87 999.53 999.35 999.34 999.51 999.85 1000.34 1000.97
1018.21 1018.00 1017.73 1017.38 1016.95 1016.45 1015.88 1015.25 1014.59 1013.92 1013.24 1012.57 1011.93 1011.31 1010.73 1010.18 1009.65 1009.15 1008.67 1008.22 1007.78 1007.35 1006.93 1006.51 1006.08 1005.63 1005.14 1004.62 1004.04 1003.42 1002.77 1002.09 1001.42 1000.78 1000.21 999.74 999.40 999.21 999.20 999.36 999.69 1000.18 1000.81
1017.82 1017.62 1017.37 1017.05 1016.66 1016.19 1015.67 1015.09 1014.48 1013.85 1013.21 1012.59 1011.97 1011.38 1010.80 1010.24 1009.69 1009.16 1008.63 1008.11 1007.60 1007.09 1006.60 1006.11 1005.62 1005.13 1004.62 1004.09 1003.53 1002.95 1002.35 1001.73 1001.12 1000.55 1000.03 999.61 999.30 999.14 999.13 999.29 999.62 1000.10 1000.71
1017.45 1017.27 1017.05 1016.76 1016.41 1016.00 1015.52 1015.00 1014.44 1013.87 1013.28 1012.69 1012.10 1011.52 1010.93 1010.34 1009.74 1009.14 1008.52 1007.90 1007.28 1006.67 1006.07 1005.48 1004.92 1004.37 1003.83 1003.30 1002.78 1002.25 1001.72 1001.20 1000.69 1000.22 999.80 999.46 999.22 999.11 999.13 999.31 999.63 1000.09 1000.68
1017.16 1017.00 1016.80 1016.55 1016.24 1015.87 1015.44 1014.97 1014.47 1013.93 1013.39 1012.82 1012.25 1011.65 1011.04 1010.40 1009.72 1009.02 1008.30 1007.55 1006.80 1006.05 1005.32 1004.63 1003.97 1003.36 1002.80 1002.27 1001.79 1001.33 1000.90 1000.50 1000.12 999.78 999.49 999.27 999.13 999.09 999.17 999.38 999.71 1000.15 1000.71
1016.96 1016.82 1016.64 1016.42 1016.14 1015.80 1015.41 1014.98 1014.51 1014.00 1013.48 1012.92 1012.34 1011.72 1011.05 1010.35 1009.58 1008.78 1007.92 1007.04 1006.15 1005.27 1004.41 1003.60 1002.86 1002.19 1001.60 1001.09 1000.65 1000.28 999.96 999.68 999.45 999.26 999.12 999.03 999.01 999.07 999.22 999.46 999.80 1000.24 1000.76
Thickness
5504 5507 5511 5514 5517 5521 5524 5527 5530 5534 5538 5542 5547 5550 5554 5557 5560 5563 5566 5568 5570 5573 5575 5577 5579 5581 5582 5582 5583 5584 5585 5586 5589 5590 5586 5583 5580 5578 5576 5575 5574 5572 5570
5497 5500 5503 5506 5509 5512 5514 5518 5521 5524 5528 5531 5536 5539 5543 5546 5549 5551 5554 5556 5558 5561 5563 5565 5568 5569 5571 5572 5573 5574 5575 5576 5577 5576 5574 5572 5571 5570 5568 5566 5564 5563 5562
5492 5494 5497 5499 5501 5503 5506 5508 5511 5514 5517 5520 5524 5528 5530 5533 5536 5539 5542 5544 5546 5548 5550 5552 5555 5556 5559 5561 5562 5563 5565 5565 5565 5565 5564 5562 5560 5558 5556 5555 5553 5551 5551
5486 5488 5490 5491 5493 5494 5496 5498 5500 5503 5506 5509 5512 5515 5517 5520 5523 5525 5527 5530 5533 5535 5536 5539 5541 5543 5545 5547 5549 5550 5552 5552 5552 5552 5552 5550 5549 5547 5545 5545 5542 5541 5540
5479 5480 5481 5482 5483 5484 5486 5488 5490 5492 5494 5497 5499 5501 5503 5506 5507 5509 5512 5515 5518 5520 5522 5523 5526 5528 5529 5531 5534 5536 5536 5538 5539 5540 5540 5539 5538 5536 5538 5538 5535 5532 5529
5473 5473 5473 5474 5474 5475 5476 5477 5478 5480 5482 5483 5485 5487 5489 5490 5490 5492 5494 5498 5501 5503 5506 5508 5510 5511 5513 5515 5518 5520 5521 5523 5526 5528 5530 5531 5532 5531 5530 5527 5524 5519 5518
5465 5465 5465 5465 5466 5466 5466 5467 5467 5468 5469 5470 5470 5471 5473 5474 5474 5475 5477 5480 5483 5485 5487 5490 5492 5495 5496 5500 5503 5505 5507 5510 5512 5515 5519 5522 5522 5522 5519 5515 5515 5514 5515
5457 5456 5456 5456 5456 5456 5456 5456 5456 5456 5455 5455 5456 5456 5457 5457 5457 5457 5459 5461 5464 5466 5468 5470 5473 5476 5479 5481 5485 5489 5493 5496 5499 5501 5505 5511 5511 5510 5509 5508 5507 5500 5496
5449 5448 5447 5446 5445 5445 5445 5444 5443 5442 5442 5441 5440 5440 5440 5440 5439 5439 5439 5443 5445 5448 5449 5451 5454 5457 5460 5462 5465 5470 5475 5479 5481 5483 5488 5492 5494 5495 5494 5490 5487 5484 5482
5441 5439 5437 5435 5434 5433 5432 5431 5429 5428 5427 5426 5424 5423 5422 5422 5421 5420 5419 5423 5426 5429 5431 5433 5435 5437 5440 5442 5445 5450 5455 5459 5462 5465 5469 5472 5476 5479 5479 5480 5480 5477 5474
5431 5429 5427 5425 5424 5422 5420 5418 5416 5414 5412 5411 5410 5408 5405 5404 5403 5401 5400 5401 5403 5406 5410 5414 5416 5418 5420 5423 5425 5430 5435 5439 5442 5446 5450 5454 5458 5461 5464 5465 5467 5468 5466
5422 5419 5417 5415 5413 5410 5408 5406 5403 5400 5398 5396 5394 5392 5390 5387 5384 5383 5382 5381 5382 5385 5389 5393 5395 5398 5401 5404 5408 5413 5416 5419 5423 5427 5431 5437 5441 5445 5448 5449 5450 5451 5453
5412 5410 5407 5404 5401 5397 5394 5391 5388 5384 5381 5379 5376 5375 5374 5371 5369 5367 5366 5365 5365 5367 5371 5373 5376 5379 5383 5387 5391 5394 5397 5401 5405 5409 5415 5420 5424 5427 5428 5429 5431 5433 5435
5402 5399 5396 5392 5388 5384 5379 5376 5372 5369 5365 5362 5360 5358 5357 5355 5353 5351 5350 5350 5351 5352 5354 5357 5359 5362 5365 5369 5373 5376 5379 5383 5387 5392 5398 5403 5405 5409 5412 5415 5417 5419 5419
5392 5388 5384 5380 5376 5372 5367 5362 5357 5353 5347 5344 5342 5340 5339 5339 5337 5333 5332 5334 5334 5336 5338 5341 5343 5346 5349 5352 5355 5357 5360 5364 5368 5374 5379 5386 5390 5394 5398 5401 5404 5407 5409
5381 5377 5372 5368 5364 5359 5356 5352 5346 5339 5335 5330 5327 5325 5324 5323 5323 5322 5320 5320 5321 5322 5323 5325 5327 5328 5330 5333 5336 5339 5342 5346 5351 5357 5363 5369 5375 5380 5384 5388 5391 5395 5398
5369 5365 5361 5356 5352 5347 5343 5339 5337 5332 5326 5321 5318 5314 5312 5311 5310 5309 5309 5309 5309 5308 5308 5309 5310 5311 5313 5315 5319 5323 5327 5332 5336 5342 5348 5354 5360 5366 5370 5375 5379 5382 5385
5358 5353 5348 5345 5340 5336 5331 5326 5322 5319 5317 5315 5309 5305 5302 5300 5299 5298 5297 5296 5297 5295 5293 5293 5294 5295 5297 5301 5305 5308 5313 5318 5323 5329 5335 5341 5347 5353 5358 5363 5367 5371 5374
5348 5343 5338 5334 5329 5325 5320 5315 5310 5307 5304 5302 5300 5297 5293 5290 5288 5287 5285 5283 5282 5281 5280 5279 5280 5282 5284 5288 5292 5296 5301 5306 5311 5317 5323 5330 5336 5341 5347 5352 5356 5360 5363
5339 5332 5327 5323 5319 5314 5309 5305 5301 5297 5293 5290 5287 5285 5282 5279 5278 5276 5273 5270 5269 5269 5269 5269 5270 5272 5274 5277 5281 5286 5291 5296 5301 5307 5313 5320 5326 5332 5337 5342 5346 5351 5355
5329 5324 5318 5314 5309 5304 5299 5295 5290 5286 5282 5278 5275 5272 5268 5266 5265 5263 5261 5260 5259 5260 5260 5261 5262 5264 5266 5269 5273 5277 5283 5288 5294 5299 5304 5311 5318 5323 5328 5333 5337 5342 5346
5320 5315 5310 5305 5300 5295 5290 5285 5280 5275 5271 5268 5265 5262 5259 5257 5255 5254 5253 5253 5252 5252 5253 5254 5256 5259 5261 5263 5267 5271 5277 5282 5287 5292 5297 5303 5309 5315 5320 5325 5329 5334 5337
5311 5306 5301 5296 5291 5286 5281 5276 5271 5267 5263 5259 5256 5254 5251 5249 5248 5247 5246 5246 5247 5248 5248 5250 5252 5255 5257 5260 5264 5268 5273 5278 5282 5287 5292 5297 5303 5309 5315 5319 5323 5327 5331
5303 5298 5293 5288 5282 5277 5272 5267 5263 5259 5255 5251 5249 5246 5244 5243 5242 5242 5242 5242 5243 5244 5245 5246 5249 5251 5254 5257 5261 5266 5270 5274 5278 5283 5288 5293 5299 5305 5310 5314 5318 5322 5325
5296 5290 5284 5279 5274 5269 5264 5259 5255 5252 5248 5245 5242 5240 5239 5238 5237 5237 5238 5239 5239 5241 5242 5244 5247 5250 5253 5256 5259 5263 5268 5273 5277 5281 5286 5291 5296 5300 5305 5309 5313 5316 5320
5288 5282 5276 5271 5266 5261 5256 5252 5249 5245 5241 5238 5236 5235 5234 5234 5234 5234 5235 5236 5237 5239 5241 5243 5246 5248 5251 5255 5259 5263 5267 5272 5276 5280 5284 5288 5293 5297 5301 5305 5308 5312 5315